Location: Gad�tanya
(48.0500°N, 20.8500°E)
Time: 11:29:40
(UTC+00:00)

Nadezhda 3 Rocket - Pass Details

Date: 05 July 2020
Orbit: 956 x 1000 km, 82.9° (Epoch: 14 August)

Event Time Altitude Azimuth Distance (km) Brightness Sun altitude
Rises 21:16:23 0° 350° (N) 3,736 8.7 -16.8°
Reaches altitude 10° 21:18:56 10° 350° (N) 2,780 7.7 -16.9°
Maximum altitude 21:25:20 84° 263° (W) 1,007 4.0 -17.2°
Enters shadow 21:29:07 26° 177° (S) 1,832 4.9 -17.4°
